(170710) = 2002 TR272 = 2004 BC38

Discovered at Catalina on 2004-01-19 by CSS.

Orbit

Orbit type: Main Belt

Note: WebGL enabled browser required.

epoch2024-03-31.0
epoch JD2460400.5
perihelion date2023-11-26.68709
perihelion JD2460275.18709
argument of perihelion (°)160.97076
ascending node (°)335.95788
inclination (°)7.30219
eccentricity0.1767145
perihelion distance (AU)2.3949441
Tisserand w.r.t. Jupiter3.2
ΔV w.r.t. Earth (km/sec)10.0
semimajor axis (AU)2.9090078
mean anomaly (°)24.89329
mean daily motion (°/day)0.19864910
aphelion distance (AU)3.423
period (years)4.96
P-vector [x]-0.73158119
P-vector [y]0.60785605
P-vector [z]0.30870696
Q-vector [x]-0.67978491
Q-vector [y]-0.61600434
Q-vector [z]-0.39803407
absolute magnitude15.33
phase slope0.15
uncertainty0
referenceMPEC 2024-F14
observations used872
oppositions15
arc length (days)9165
first opposition used1999
last opposition used2024
residual rms (arc-secs)0.68
perturbers coarse indicatorM-v
perturbers precise indicator003Ek
first observation date used1999-02-12.0
last observation date used2024-03-17.0
computer nameMPCLINUX
JD of orbit computation2456877.798450
perihelion JD uncertainty (days)1.2104E-04
argument of perihelion uncertainty (°)4.0360E-05
ascending node uncertainty (°)2.6744E-05
inclination uncertainty (°)7.3896E-06
eccentricity uncertainty 8.4639E-08
perihelion distance uncertainty (AU)2.4241E-07
Minimum Orbit Intersection Distances (in AU)
for orbit epoch: 2460400.5, reference: E2024-GB3
Mercury2.05146
Venus1.67653
Earth1.41025
Mars0.73553
Jupiter1.61032
Saturn6.29316
Uranus15.9597
Neptune26.6101

Observations

891 total observations over interval: 1999 02 12.27365 – 2024 03 17.463620
These data are available for download (format description).

Date (UT) J2000 RA J2000 Dec Magn Location Ref
1999 02 12.27365 09 31 16.01 +18 12 29.5 18.0 R 699 – Lowell Observatory-LONEOS MPS 98849
1999 02 12.29914 09 31 14.42 +18 12 32.0   699 – Lowell Observatory-LONEOS MPS 98849
1999 02 12.32465 09 31 12.93 +18 12 32.0   699 – Lowell Observatory-LONEOS MPS 98849
2001 09 20.14570 21 01 43.16 -18 59 46.3 22.2 V 291 – LPL/Spacewatch II MPS 104322
2001 09 20.16811 21 01 42.61 -18 59 44.7 22.0 V 291 – LPL/Spacewatch II MPS 104322
2001 09 20.19167 21 01 42.06 -18 59 44.5 21.2 V 291 – LPL/Spacewatch II MPS 104322
2002 10 09.26575 01 31 35.01 +18 11 27.3 19.5   704 – Lincoln Laboratory ETS, New Mexico MPS 64240
2002 10 09.29511 01 31 33.45 +18 11 21.7 19.5   704 – Lincoln Laboratory ETS, New Mexico MPS 64240
2002 10 09.31057 01 31 32.64 +18 11 19.8 19.3   704 – Lincoln Laboratory ETS, New Mexico MPS 64240
2002 10 12.27358 01 28 58.75 +18 03 14.6 19.9   704 – Lincoln Laboratory ETS, New Mexico MPS 64240
2002 10 12.29047 01 28 57.86 +18 03 13.1 19.8   704 – Lincoln Laboratory ETS, New Mexico MPS 64240
2002 10 12.30688 01 28 57.02 +18 03 10.3 19.4   704 – Lincoln Laboratory ETS, New Mexico MPS 64240
2002 10 12.32363 01 28 56.03 +18 03 06.6 19.5   704 – Lincoln Laboratory ETS, New Mexico MPS 64240
2002 10 30.45503 01 13 07.01 +16 55 58.1 21.2   608 – Haleakala-AMOS MPS 98787
2002 10 30.46645 01 13 06.42 +16 55 54.5 20.7   608 – Haleakala-AMOS MPS 98787
2002 10 30.47772 01 13 05.87 +16 55 52.8 20.6   608 – Haleakala-AMOS MPS 98787
2003 12 22.40302 10 19 27.77 +15 12 03.8 19.3   704 – Lincoln Laboratory ETS, New Mexico MPS 104322
2003 12 22.41612 10 19 28.05 +15 12 02.6 20.0   704 – Lincoln Laboratory ETS, New Mexico MPS 104322
2003 12 22.42938 10 19 28.26 +15 11 58.9 19.9   704 – Lincoln Laboratory ETS, New Mexico MPS 104322
2003 12 22.44255 10 19 28.46 +15 11 56.5 19.1   704 – Lincoln Laboratory ETS, New Mexico MPS 104322
2003 12 22.45564 10 19 28.75 +15 11 54.0 19.3   704 – Lincoln Laboratory ETS, New Mexico MPS 104322
2004 01 19.41038 10 16 49.77 +14 37 14.5 18.8 V 703 – Catalina Sky Survey MPS 97131
2004 01 19.42185 10 16 49.37 +14 37 14.3 18.9 V 703 – Catalina Sky Survey MPS 97131
2004 01 19.43328 10 16 48.97 +14 37 15.1 18.2 V 703 – Catalina Sky Survey MPS 97131
2004 01 19.44465 10 16 48.64 +14 37 14.6 19.1 V 703 – Catalina Sky Survey MPS 97131
2004 01 22.35471 10 15 12.29 +14 38 32.0 19.0   704 – Lincoln Laboratory ETS, New Mexico MPS 97131
2004 01 22.36820 10 15 11.79 +14 38 32.7 19.0   704 – Lincoln Laboratory ETS, New Mexico MPS 97131
2004 01 22.38100 10 15 11.29 +14 38 33.6 19.1   704 – Lincoln Laboratory ETS, New Mexico MPS 97131
2004 01 22.39385 10 15 10.79 +14 38 33.7 19.3   704 – Lincoln Laboratory ETS, New Mexico MPS 97131
2004 01 22.40691 10 15 10.27 +14 38 33.9 19.5   704 – Lincoln Laboratory ETS, New Mexico MPS 97131
2004 01 30.33196 10 09 42.18 +14 45 11.4 18.5   704 – Lincoln Laboratory ETS, New Mexico MPS 98849
2004 01 30.34381 10 09 41.58 +14 45 12.5 19.0   704 – Lincoln Laboratory ETS, New Mexico MPS 98849
2004 01 30.35572 10 09 41.03 +14 45 13.2 18.9   704 – Lincoln Laboratory ETS, New Mexico MPS 98849
2004 01 30.36772 10 09 40.41 +14 45 13.4 18.8   704 – Lincoln Laboratory ETS, New Mexico MPS 98849
2004 01 30.37969 10 09 39.82 +14 45 15.2 19.0   704 – Lincoln Laboratory ETS, New Mexico MPS 98849
2004 02 10.39105 10 00 07.15 +14 58 13.2 18.2 V 703 – Catalina Sky Survey MPS 98849
2004 02 10.39647 10 00 06.77 +14 58 14.2 18.1   644 – Palomar Mountain/NEAT MPS 98849
2004 02 10.40744 10 00 06.09 +14 58 15.2 18.2 V 703 – Catalina Sky Survey MPS 98849
2004 02 10.41735 10 00 05.57 +14 58 15.6 18.0   644 – Palomar Mountain/NEAT MPS 98849
2004 02 10.42384 10 00 05.13 +14 58 16.1 18.4 V 703 – Catalina Sky Survey MPS 98849
2004 02 10.44023 10 00 04.21 +14 58 16.7 18.4 V 703 – Catalina Sky Survey MPS 98849
2004 02 10.44159 10 00 04.16 +14 58 17.3 17.9   644 – Palomar Mountain/NEAT MPS 98849
2004 02 11.38277 09 59 11.41 +14 59 24.7 18.1 R 699 – Lowell Observatory-LONEOS MPS 98849
2004 02 11.40304 09 59 10.21 +14 59 26.0   699 – Lowell Observatory-LONEOS MPS 98849
2004 02 11.42336 09 59 09.07 +14 59 26.9   699 – Lowell Observatory-LONEOS MPS 98849
2004 02 11.44370 09 59 07.84 +14 59 28.6   699 – Lowell Observatory-LONEOS MPS 98849
2004 02 12.37097 09 58 15.59 +15 00 34.0 18.3 R 333 – Desert Eagle Observatory MPS 98849
2004 02 12.38347 09 58 14.87 +15 00 35.0 18.4 R 333 – Desert Eagle Observatory MPS 98849
2004 02 12.39602 09 58 14.13 +15 00 35.5 18.5 R 333 – Desert Eagle Observatory MPS 98849
2004 02 12.40899 09 58 13.36 +15 00 36.9 18.6 R 333 – Desert Eagle Observatory MPS 98849
2004 02 12.42156 09 58 12.61 +15 00 37.8 18.9 R 333 – Desert Eagle Observatory MPS 98849
2004 02 12.43407 09 58 11.86 +15 00 39.1 18.4 R 333 – Desert Eagle Observatory MPS 98849
2004 02 13.40084 09 57 17.10 +15 01 44.6 18.9 R 333 – Desert Eagle Observatory MPS 98849
2004 02 13.41330 09 57 16.30 +15 01 45.5 18.7 R 333 – Desert Eagle Observatory MPS 98849
2004 02 13.42623 09 57 15.57 +15 01 46.4 18.6 R 333 – Desert Eagle Observatory MPS 98849
2004 02 13.43929 09 57 14.84 +15 01 46.9 18.7 R 333 – Desert Eagle Observatory MPS 98849
2004 02 13.45186 09 57 14.11 +15 01 47.7 18.8 R 333 – Desert Eagle Observatory MPS 98849
2004 02 13.46396 09 57 13.39 +15 01 48.6 18.7 R 333 – Desert Eagle Observatory MPS 98849
2004 02 16.23580 09 54 35.63 +15 04 47.9 20.1 R 333 – Desert Eagle Observatory MPS 98849
2004 02 16.25370 09 54 34.59 +15 04 49.1 19.7 R 333 – Desert Eagle Observatory MPS 98849
2004 02 16.27177 09 54 33.49 +15 04 50.3 19.7 R 333 – Desert Eagle Observatory MPS 98849
2004 02 17.27379 09 53 36.24 +15 05 50.5 18.9   704 – Lincoln Laboratory ETS, New Mexico MPS 98849
2004 02 17.28558 09 53 35.55 +15 05 50.6 18.3   704 – Lincoln Laboratory ETS, New Mexico MPS 98849
2004 02 17.29744 09 53 34.87 +15 05 51.3 18.5   704 – Lincoln Laboratory ETS, New Mexico MPS 98849
2004 02 17.30943 09 53 34.17 +15 05 51.7 19.2   704 – Lincoln Laboratory ETS, New Mexico MPS 98849
2004 02 17.32123 09 53 33.44 +15 05 52.8 18.7   704 – Lincoln Laboratory ETS, New Mexico MPS 98849
2004 02 20.38703 09 50 39.64 +15 08 37.0 19.5   608 – Haleakala-AMOS MPS 100121
2004 02 20.39756 09 50 39.02 +15 08 37.1 19.5   608 – Haleakala-AMOS MPS 100121
2004 02 20.40849 09 50 38.36 +15 08 37.9 19.6   608 – Haleakala-AMOS MPS 100121
2004 02 23.27430 09 47 58.90 +15 10 37.6 18.2   704 – Lincoln Laboratory ETS, New Mexico MPS 100121
2004 02 23.28822 09 47 58.11 +15 10 37.9 18.7   704 – Lincoln Laboratory ETS, New Mexico MPS 100121
2004 02 23.29973 09 47 57.43 +15 10 38.7 18.8   704 – Lincoln Laboratory ETS, New Mexico MPS 100121
2004 02 23.31367 09 47 56.67 +15 10 38.8 18.7   704 – Lincoln Laboratory ETS, New Mexico MPS 100121
2004 02 23.32794 09 47 55.82 +15 10 39.6 18.5   704 – Lincoln Laboratory ETS, New Mexico MPS 100121
2004 02 25.30492 09 46 08.83 +15 11 40.1 18.6   704 – Lincoln Laboratory ETS, New Mexico MPS 100121
2004 02 25.31705 09 46 08.13 +15 11 40.7 18.7   704 – Lincoln Laboratory ETS, New Mexico MPS 100121
2004 02 25.32916 09 46 07.46 +15 11 40.6 18.8   704 – Lincoln Laboratory ETS, New Mexico MPS 100121
2004 02 25.34113 09 46 06.80 +15 11 41.2 18.7   704 – Lincoln Laboratory ETS, New Mexico MPS 100121
2004 02 25.35438 09 46 06.06 +15 11 41.7 18.6   704 – Lincoln Laboratory ETS, New Mexico MPS 100121
2004 03 14.23278 09 33 11.86 +15 04 12.4 18.4 V 703 – Catalina Sky Survey MPS 101209
2004 03 14.24300 09 33 11.49 +15 04 11.0 18.8 V 703 – Catalina Sky Survey MPS 101209
2004 03 14.25323 09 33 11.18 +15 04 11.1 19.2 V 703 – Catalina Sky Survey MPS 101209
2004 03 14.26350 09 33 10.84 +15 04 10.2 19.2 V 703 – Catalina Sky Survey MPS 101209
2004 03 15.21304 09 32 42.70 +15 02 50.8 19.9 R 701 – Junk Bond Observatory, Sierra Vista MPS 101209
2004 03 15.22347 09 32 42.37 +15 02 50.1 18.9   704 – Lincoln Laboratory ETS, New Mexico MPS 101209
2004 03 15.23303 09 32 42.08 +15 02 49.7 18.8 R 701 – Junk Bond Observatory, Sierra Vista MPS 101209
2004 03 15.23456 09 32 41.96 +15 02 49.3 19.3   704 – Lincoln Laboratory ETS, New Mexico MPS 101209
2004 03 15.24561 09 32 41.65 +15 02 47.9 19.3   704 – Lincoln Laboratory ETS, New Mexico MPS 101209
